Location: Grangia Rosano
(44.4167°N, 6.9667°E)
Time: 19:52:01
(UTC+00:00)

Daily predictions for brighter satellites

Satellite Brightness Start Highest point End
(mag) Time Altitude Azimuth Time Altitude Azimuth Time Altitude Azimuth
Cosmos 407 Rocket 3.9 16:24:24 10° S 16:29:19 45° ESE 16:34:12 10° NNE
Cosmos 1484 Rocket 2.8 16:27:04 10° S 16:30:33 73° WSW 16:34:05 10° NNW
Cosmos 2016 Rocket 4.2 16:24:15 10° S 16:30:34 82° W 16:36:58 10° N
Cosmos 1833 Rocket 2.9 16:25:34 10° NNW 16:31:14 79° WSW 16:36:52 10° SSE
Cosmos 1812 3.8 16:29:40 10° SE 16:31:27 15° E 16:33:14 10° NE
CBERS-1 4.1 16:27:46 10° SSE 16:32:52 87° WSW 16:38:01 10° NNW
TIMED 4.4 16:29:16 10° SSW 16:33:31 79° ESE 16:37:48 10° NNE
Tsikada Rocket 4.1 16:30:18 10° N 16:36:44 80° E 16:43:05 10° S
SMAP 3.1 16:36:08 10° SSE 16:40:42 60° ENE 16:45:19 10° N
Cosmos 44 Rocket 3.6 16:37:42 10° SSW 16:42:15 48° ESE 16:46:58 10° NE
SJ 16-02 2.7 16:41:30 10° SE 16:44:34 19° E 16:47:37 10° NE
SPOT 1/Viking Rocket 4.5 16:41:28 10° ESE 16:45:37 25° ENE 16:49:49 10° N
Cosmos 540 Rocket 3.7 16:40:48 10° N 16:45:46 48° ENE 16:50:42 10° SE
Cosmos 1869 3.2 16:42:57 10° SSE 16:46:21 46° E 16:49:43 10° NNE
YAOGAN 1 4.1 16:45:01 10° E 16:47:34 16° ENE 16:50:05 10° NNE
IGS 5A 3.6 16:43:54 10° S 16:47:52 74° W 16:51:51 10° NNW
Landsat 7 3.8 16:48:19 10° SSE 16:52:51 57° ENE 16:57:26 10° N
SL-16 R/B 3.2 16:47:53 10° N 16:54:00 58° WNW 17:00:06 10° SW
Cosmos 1763 Rocket 3.4 16:49:04 10° NNW 16:54:16 68° ENE 16:59:22 10° SSE
Cosmos 1140 Rocket 4.3 16:53:20 10° SW 16:58:22 53° WNW 17:03:26 10° NNE
Aureole 3 Rocket 2.7 16:56:36 10° SSE 16:59:25 37° E 17:02:24 10° NNE
RESURS DK-1 2.2 16:55:53 10° NNW 16:59:53 66° ENE 17:03:50 10° SE
Timation 1 Rocket 4.3 16:53:58 10° NNW 16:59:55 68° ENE 17:05:52 10° SE
CZ-4C R/B 4.2 16:58:04 10° WNW 17:01:11 16° NNW 17:04:45 10° NNE
SJ-6F 4.4 17:01:03 10° SSE 17:04:49 51° ENE 17:08:39 10° N
UNK 4.1 17:02:25 10° N 17:07:01 68° WNW 17:11:34 10° SSW
Cosmos 1400 Rocket 3.6 17:05:33 10° SSE 17:08:47 27° E 17:11:08 15° NE
Cosmos 371 Rocket 4.2 17:05:00 10° SSE 17:09:03 28° E 17:12:04 15° NE
SJ-12 3.6 17:05:29 10° SSE 17:09:16 83° ENE 17:13:05 10° NNW
Meteor 2-12 Rocket 4.4 17:04:36 10° N 17:10:44 83° E 17:16:48 10° S
Cosmos 1536 Rocket 4.1 17:09:13 10° N 17:13:19 36° ENE 17:17:21 10° SE
Okean 2 Rocket 3.7 17:12:12 10° SSE 17:16:08 33° E 17:20:03 10° NNE
SAR-Lupe-3 3.9 17:14:10 10° N 17:16:48 75° WNW 17:19:25 10° SSW
Helios 1A Rocket 3.5 17:16:48 23° E 17:17:06 24° E 17:19:53 10° SSE
IRS-1C 4.4 17:15:00 10° S 17:20:18 74° WSW 17:25:39 10° NNW
SL-12 R/B(2) 4.5 17:17:30 10° SW 17:25:24 78° NW 17:35:09 10° NE
Cosmos 1943 Rocket 2.5 17:23:18 10° SW 17:28:53 67° WNW 17:34:27 10° NNE
COSMO-SKYMED 1 2.9 17:26:49 21° NE 17:29:04 37° E 17:32:53 10° SSE
Cosmos 2251 Rocket 3.5 17:27:31 10° SSW 17:32:48 88° ESE 17:38:09 10° NNE
SJ-7 4.4 17:31:23 10° SE 17:34:52 43° ENE 17:38:24 10° N
Cosmos 841 Rocket 3.8 17:30:01 10° N 17:35:00 42° ENE 17:38:54 16° SE
Cosmos 2058 2.7 17:31:18 10° N 17:35:18 86° E 17:39:16 10° S
BREEZE-M DEB (TANK) 2.7 17:34:53 10° W 17:37:27 53° N 17:39:49 27° ENE
Cosmos 2082 Rocket 2.1 17:34:34 10° NNW 17:40:12 83° ENE 17:45:50 10° SSE
ATLAS 2AS CENTAUR R/B 3.6 17:34:44 10° NNW 17:40:27 27° NNE 17:42:14 24° ENE
IRAS Rocket 4.2 17:36:24 10° SSE 17:41:52 63° ENE 17:47:20 10° N
Cosmos 2278 Rocket 2.8 17:36:52 10° SW 17:42:25 56° WNW 17:48:00 10° NNE
MOS 1 Rocket 3.3 17:39:49 10° S 17:44:06 73° WSW 17:48:36 10° NNW
Cosmos 1602 3.9 17:43:29 10° NNW 17:46:29 52° W 17:49:27 10° S
Cosmos 1464 Rocket 3.9 17:42:18 10° S 17:48:36 87° E 17:54:52 10° N
ARIANE 5 R/B 3.9 17:44:30 10° SSW 17:49:07 38° W 17:53:47 10° NNW
Cosmos 468 Rocket 4.1 17:44:10 10° NNW 17:49:22 76° WSW 17:54:28 10° SSE
CZ-2D R/B 3.3 17:45:44 10° SSE 17:49:52 88° E 17:54:06 10° NNW
Meteor 2-1 Rocket 4.4 17:44:40 10° SSE 17:50:20 52° E 17:56:06 10° NNE
Cosmos 2369 Rocket 3.5 17:47:25 10° SSE 17:50:09 21° SE 17:50:09 21° SE
USA 215 3.7 17:47:04 10° SE 17:53:31 61° SW 18:00:00 10° NW
PSLV R/B 3.2 17:51:40 10° SSE 17:55:41 71° ENE 17:59:42 10° N
Cosmos 1862 3.3 17:54:04 10° NNW 17:57:41 68° W 18:01:17 10° S
Geosat FO 4.4 17:57:42 60° SW 17:57:48 60° WSW 18:00:38 10° NW
Cosmos 2151 Rocket 3.9 17:54:52 10° SSW 17:59:19 66° W 18:03:49 10° N
SJ-6E 4.5 17:56:53 10° SSE 18:00:37 81° ENE 18:04:24 10° N
Cosmos 1190 Rocket 4.4 17:55:24 10° SSW 18:00:39 64° WNW 18:05:26 13° NNE
Cosmos 2034 Rocket 3.9 17:56:23 10° S 18:02:33 75° E 18:08:49 10° NNE
Cosmos 676 Rocket 3.9 17:58:24 10° SSW 18:03:42 85° ESE 18:06:42 27° NNE
ISS -2.2 18:01:09 10° WNW 18:03:52 27° NNW 18:03:52 27° NNW
Okean 1 Rocket 3.0 18:01:34 10° S 18:05:59 88° WNW 18:08:24 26° N
Cosmos 1656 Rocket 3.6 18:00:55 10° S 18:06:22 64° ESE 18:08:00 44° NE
SKYMED 2 4.2 18:04:19 10° N 18:08:35 56° WNW 18:12:49 10° SSW
USA 281 3.7 18:11:29 37° NE 18:11:29 37° NE 18:17:17 10° N
Sich 1 Rocket 3.7 18:07:12 10° SSW 18:11:44 76° W 18:14:56 19° N
Cosmos 1954 Rocket 4.4 18:07:52 10° SSW 18:13:05 61° WNW 18:16:53 18° N
Cosmos 1932 4.4 18:07:27 10° SSW 18:13:48 79° ESE 18:16:22 39° NE
COSMOS 2406 3.1 18:10:11 10° NNW 18:15:54 86° ENE 18:19:02 28° SSE
BlueWalker 3 3.2 18:13:33 10° SW 18:15:40 31° SSW 18:15:40 31° SSW
SL-19 R/B 4.2 18:11:56 10° S 18:17:08 75° WSW 18:22:23 10° NNW
Cosmos 1092 Rocket 3.9 18:11:42 10° N 18:17:55 65° E 18:24:02 10° SSE
Cosmos 968 Rocket 3.8 18:16:20 10° S 18:20:21 49° SSE 18:20:21 49° SSE
SJ 16-02 2.5 18:18:18 10° SW 18:22:22 40° WNW 18:24:29 24° N
Cosmos 2026 Rocket 3.8 18:16:48 10° N 18:22:55 80° E 18:29:05 10° S
YAOGAN 1 3.2 18:18:48 10° S 18:22:58 55° W 18:27:10 10° NNW
BREEZE-M DEB (TANK) 4.4 18:08:30 10° WNW 18:28:23 83° SSW 18:30:12 50° SE
Cosmos 2344 3.9 18:25:56 10° NW 18:34:01 74° NE 18:38:34 38° SE
Meteor 2-3 Rocket 3.9 18:33:08 10° NNW 18:38:48 70° W 18:44:22 10° S
DELTA 2 R/B (1) 4.4 18:33:43 10° SW 18:38:13 39° S 18:38:13 39° S
ATLAS 2AS CENTAUR R/B 3.5 19:25:22 10° NW 19:29:41 43° NW 19:29:41 43° NW
Cosmos 2369 Rocket 4.1 19:30:03 10° SW 19:31:59 22° SW 19:31:59 22° SW
